Etusivu
METAR-TAF:

METAR-TAF

Lentoasemat :

Brown Field Municipal Airport

San Diego, Kalifornia, Yhdysvallat

Leveyspiiri: 32-34-31N, Pituuspiiri: 116-59-35W, korkeus merenpinnasta: 164 m

Tämänhetkinen sää

Tämä raportti tehtiin 52 minuuttia sitten, kello 17.53 UTC
Tuuli 7 kn lännestä
Lämpötila 23°C
Kosteus 65%
Ilmanpaine 1010 hPa
Näkyvyys: 11.3 km
selkeää

METAR: KSDM 181753Z 27007KT 7SM CLR 23/16 A2982 RMK AO2 SLP092 T02330156 10233 20183 58005

Aika: 11:45 (18:45 UTC)


TAF: puuttuu

Säähavainnot ja -ennusteet yli 4000 lentoasemalta (METAR- ja TAF-raportit).

Käytössä olevat sääasemat on merkitty karttaan keltaisilla ja punaisilla pisteillä.

Aseta hiiri pisteen päälle nähdäksesi sääaseman nimen.

Klikkaa sitten nähdäksesi säähavainnot ja -ennusteet.

Kartan vaihtaminen: klikkaa mustalla rastilla varustettuja vihreitä pisteitä, niin voit zoomata sisään; viivalla varustettua vihreää pistettä, niin voit zoomata ulos tai vihreitä nuolia, niin pääset viereisille kartoille.


METAR-TAF: